Location: Vihti�l�
(61.3833°N, 23.0667°E)
Time: 03:00:52
(UTC+00:00)

ALOS - Pass Details

Date: 29 November 2020
Orbit: 683 x 685 km, 97.9° (Epoch: 19 January)

Event Time Altitude Azimuth Distance (km) Brightness Sun altitude
Rises 02:05:36 0° 20° (NNE) 3,070 6.1 -34.2°
Reaches altitude 10° 02:08:15 10° 34° (NE) 2,149 5.4 -33.9°
Maximum altitude 02:12:05 24° 89° (E) 1,405 4.4 -33.5°
Enters shadow 02:14:59 14° 136° (SE) 1,864 4.7 -33.1°
